When you browse on this site, cookies collect data to enhance your experience and personalize the content and advertising you see.
Visit our Privacy Policy to learn more. By continuing to use the site, you agree to this use of cookies and data.
  • In Latvia
  • List of Countries
  • For 7 days
  • Water Temperature
  • Satellite Maps
  • Weather Map
  • Weather Widgets
  • user-avatar
    Login

    Hourly Weather Ebikon

    Today, 16 February, Saturday

    Time Temperature Precipitation Wind Pressure Humidity
    00:00 +5°C° 0 mm 1 mps 730 mmHg 67%
    01:00 +5°C° 0 mm 1 mps 730 mmHg 67%
    02:00 +4°C° 0 mm 2 mps 730 mmHg 66%
    03:00 +4°C° 0 mm 2 mps 730 mmHg 64%
    04:00 +4°C° 0 mm 2 mps 730 mmHg 63%
    05:00 +4°C° 0 mm 2 mps 730 mmHg 62%
    06:00 +4°C° 0 mm 2 mps 730 mmHg 60%
    07:00 +4°C° 0 mm 2 mps 730 mmHg 59%
    08:00 +6°C° 0 mm 2 mps 730 mmHg 59%
    09:00 +9°C° 0 mm 1 mps 730 mmHg 60%
    10:00 +10°C° 0 mm 1 mps 730 mmHg 60%
    11:00 +12°C° 0 mm 1 mps 730 mmHg 59%
    12:00 +13°C° 0 mm 0 mps 730 mmHg 58%
    13:00 +14°C° 0 mm 0 mps 730 mmHg 57%
    14:00 +14°C° 0 mm 0 mps 730 mmHg 59%
    15:00 +14°C° 0 mm 0 mps 729 mmHg 60%
    16:00 +13°C° 0 mm 0 mps 729 mmHg 62%
    17:00 +12°C° 0 mm 1 mps 729 mmHg 62%
    18:00 +10°C° 0 mm 1 mps 729 mmHg 62%
    19:00 +7°C° 0 mm 2 mps 729 mmHg 62%
    20:00 +6°C° 0 mm 2 mps 729 mmHg 60%
    21:00 +6°C° 0 mm 2 mps 729 mmHg 59%
    22:00 +5°C° 0 mm 2 mps 729 mmHg 58%
    23:00 +5°C° 0 mm 2 mps 729 mmHg 57%

    Tomorrow, 17 February, Sunday

    Time Temperature Precipitation Wind Pressure Humidity
    00:00 +5°C° 0 mm 2 mps 729 mmHg 56%
    01:00 +5°C° 0 mm 2 mps 729 mmHg 55%
    02:00 +5°C° 0 mm 2 mps 729 mmHg 55%
    03:00 +4°C° 0 mm 2 mps 729 mmHg 55%
    04:00 +4°C° 0 mm 2 mps 728 mmHg 54%
    05:00 +4°C° 0 mm 2 mps 728 mmHg 54%
    06:00 +4°C° 0 mm 2 mps 728 mmHg 54%
    07:00 +4°C° 0 mm 2 mps 728 mmHg 54%
    08:00 +7°C° 0 mm 1 mps 728 mmHg 54%
    09:00 +9°C° 0 mm 1 mps 728 mmHg 54%
    10:00 +10°C° 0 mm 1 mps 728 mmHg 55%
    11:00 +12°C° 0 mm 1 mps 728 mmHg 53%
    12:00 +13°C° 0 mm 0 mps 728 mmHg 52%
    13:00 +14°C° 0 mm 0 mps 727 mmHg 51%
    14:00 +14°C° 0 mm 0 mps 727 mmHg 54%
    15:00 +14°C° 0 mm 0 mps 726 mmHg 57%
    16:00 +13°C° 0 mm 0 mps 726 mmHg 59%
    17:00 +12°C° 0 mm 1 mps 726 mmHg 61%
    18:00 +10°C° 0 mm 1 mps 726 mmHg 63%
    19:00 +7°C° 0 mm 2 mps 726 mmHg 64%
    20:00 +6°C° 0 mm 2 mps 726 mmHg 63%
    21:00 +6°C° 0 mm 2 mps 726 mmHg 62%
    22:00 +5°C° 0 mm 2 mps 726 mmHg 61%
    23:00 +5°C° 0 mm 2 mps 726 mmHg 60%

    Day after tomorrow, 18 February, Monday

    Time Temperature Precipitation Wind Pressure Humidity
    00:00 +4°C° 0 mm 2 mps 726 mmHg 59%
    01:00 +4°C° 0 mm 2 mps 726 mmHg 58%
    02:00 +4°C° 0 mm 2 mps 726 mmHg 58%
    03:00 +4°C° 0 mm 2 mps 726 mmHg 58%
    04:00 +3°C° 0 mm 2 mps 726 mmHg 58%
    05:00 +3°C° 0 mm 2 mps 725 mmHg 58%
    06:00 +3°C° 0 mm 2 mps 725 mmHg 58%
    07:00 +4°C° 0 mm 1 mps 725 mmHg 58%
    08:00 +6°C° 0 mm 1 mps 725 mmHg 57%
    09:00 +8°C° 0 mm 1 mps 725 mmHg 56%
    10:00 +10°C° 0 mm 1 mps 725 mmHg 55%
    11:00 +11°C° 0 mm 1 mps 725 mmHg 53%
    12:00 +12°C° 0 mm 1 mps 725 mmHg 52%
    13:00 +14°C° 0 mm 1 mps 724 mmHg 51%
    14:00 +13°C° 0 mm 0 mps 724 mmHg 53%
    15:00 +12°C° 0 mm 0 mps 724 mmHg 56%
    16:00 +12°C° 0 mm 0 mps 723 mmHg 58%
    17:00 +11°C° 0 mm 1 mps 723 mmHg 61%
    18:00 +9°C° 0 mm 1 mps 724 mmHg 65%
    19:00 +7°C° 0 mm 1 mps 724 mmHg 68%
    20:00 +7°C° 0 mm 1 mps 724 mmHg 67%
    21:00 +5°C° 0 mm 2 mps 724 mmHg 66%
    22:00 +5°C° 0 mm 2 mps 724 mmHg 65%
    23:00 +4°C° 0 mm 2 mps 725 mmHg 64%

    19 February, Tuesday

    Time Temperature Precipitation Wind Pressure Humidity
    00:00 +4°C° 0 mm 2 mps 725 mmHg 63%
    01:00 +4°C° 0 mm 2 mps 725 mmHg 62%
    02:00 +4°C° 0 mm 2 mps 725 mmHg 62%
    03:00 +4°C° 0 mm 2 mps 724 mmHg 61%
    04:00 +3°C° 0 mm 2 mps 724 mmHg 61%
    05:00 +3°C° 0 mm 2 mps 724 mmHg 61%
    06:00 +3°C° 0 mm 2 mps 725 mmHg 61%
    07:00 +3°C° 0 mm 2 mps 725 mmHg 62%
    08:00 +6°C° 0 mm 1 mps 725 mmHg 60%
    09:00 +8°C° 0 mm 1 mps 725 mmHg 58%
    10:00 +9°C° 0 mm 1 mps 725 mmHg 56%
    11:00 +10°C° 0 mm 1 mps 725 mmHg 54%
    12:00 +11°C° 0 mm 1 mps 725 mmHg 52%
    13:00 +12°C° 0 mm 1 mps 725 mmHg 51%
    14:00 +12°C° 0 mm 1 mps 725 mmHg 53%
    15:00 +12°C° 0 mm 1 mps 725 mmHg 55%
    16:00 +12°C° 0 mm 1 mps 725 mmHg 57%
    17:00 +10°C° 0 mm 1 mps 725 mmHg 63%
    18:00 +8°C° 0 mm 1 mps 725 mmHg 70%
    19:00 +6°C° 0 mm 1 mps 725 mmHg 77%
    20:00 +6°C° 0 mm 1 mps 726 mmHg 77%
    21:00 +5°C° 0 mm 1 mps 726 mmHg 77%
    22:00 +5°C° 0 mm 1 mps 726 mmHg 77%
    23:00 +5°C° 0 mm 1 mps 726 mmHg 76%

    20 February, Wednesday

    Time Temperature Precipitation Wind Pressure Humidity
    00:00 +4°C° 0 mm 1 mps 726 mmHg 74%
    01:00 +4°C° 0 mm 1 mps 726 mmHg 72%
    02:00 +4°C° 0 mm 1 mps 726 mmHg 70%
    03:00 +4°C° 0 mm 1 mps 726 mmHg 68%
    04:00 +4°C° 0 mm 1 mps 726 mmHg 65%
    05:00 +4°C° 0 mm 1 mps 726 mmHg 64%
    06:00 +4°C° 0 mm 1 mps 726 mmHg 62%
    07:00 +4°C° 0 mm 1 mps 726 mmHg 61%
    08:00 +5°C° 0 mm 1 mps 727 mmHg 57%
    09:00 +7°C° 0 mm 1 mps 727 mmHg 52%
    10:00 +8°C° 0 mm 0 mps 727 mmHg 48%
    11:00 +10°C° 0 mm 0 mps 727 mmHg 46%
    12:00 +11°C° 0 mm 0 mps 727 mmHg 44%
    13:00 +13°C° 0 mm 1 mps 727 mmHg 42%
    14:00 +12°C° 0 mm 0 mps 727 mmHg 43%
    15:00 +12°C° 0 mm 0 mps 727 mmHg 45%
    16:00 +12°C° 0 mm 0 mps 726 mmHg 47%
    17:00 +11°C° 0 mm 1 mps 727 mmHg 51%
    18:00 +9°C° 0 mm 1 mps 727 mmHg 56%
    19:00 +7°C° 0 mm 1 mps 727 mmHg 61%
    20:00 +6°C° 0 mm 1 mps 727 mmHg 61%
    21:00 +5°C° 0 mm 2 mps 728 mmHg 61%
    22:00 +5°C° 0 mm 2 mps 728 mmHg 61%
    23:00 +5°C° 0 mm 2 mps 728 mmHg 59%

    21 February, Thursday

    Time Temperature Precipitation Wind Pressure Humidity
    00:00 +4°C° 0 mm 2 mps 728 mmHg 58%
    01:00 +4°C° 0 mm 2 mps 728 mmHg 56%
    02:00 +5°C° 0 mm 1 mps 728 mmHg 55%
    03:00 +5°C° 0 mm 1 mps 728 mmHg 54%
    04:00 +5°C° 0 mm 1 mps 728 mmHg 52%
    05:00 +4°C° 0 mm 1 mps 728 mmHg 52%
    06:00 +4°C° 0 mm 1 mps 728 mmHg 51%
    07:00 +4°C° 0 mm 1 mps 728 mmHg 50%
    08:00 +6°C° 0 mm 1 mps 729 mmHg 48%
    09:00 +7°C° 0 mm 0 mps 729 mmHg 46%
    10:00 +9°C° 0 mm 0 mps 729 mmHg 44%
    11:00 +10°C° 0 mm 0 mps 729 mmHg 44%
    12:00 +11°C° 0 mm 0 mps 728 mmHg 44%
    13:00 +13°C° 0 mm 0 mps 728 mmHg 44%
    14:00 +12°C° 0 mm 0 mps 728 mmHg 47%
    15:00 +12°C° 0 mm 0 mps 728 mmHg 50%
    16:00 +12°C° 0 mm 0 mps 727 mmHg 53%
    17:00 +11°C° 0 mm 1 mps 728 mmHg 57%
    18:00 +9°C° 0 mm 1 mps 728 mmHg 62%
    19:00 +7°C° 0 mm 1 mps 728 mmHg 67%
    20:00 +7°C° 0 mm 1 mps 728 mmHg 67%
    21:00 +7°C° 0 mm 1 mps 728 mmHg 66%
    22:00 +6°C° 0 mm 1 mps 729 mmHg 65%
    23:00 +6°C° 0 mm 1 mps 729 mmHg 65%
    Show more